KC8YYF Weather Reports


time (UTC)temp
F
wind
direction
speed
knots
gust
knots
rain 1hr
in
rain 24hr
in
rain mn
in
humidity
%
barometer
mb
20260510201849 63 67 4.3 4.3 0.00 0.00 0.00 44 1018.5
20260510201347 63 82 2.6 6.1 0.00 0.00 0.00 47 1018.0
20260510200843 63 128 4.3 6.1 0.00 0.00 0.00 47 1018.1
20260510200342 64 77 1.7 2.6 0.00 0.00 0.00 49 1018.3
20260510195837 63 75 2.6 4.3 0.00 0.00 0.00 48 1018.4
20260510195334 62 118 2.6 7.0 0.00 0.00 0.00 46 1018.3
20260510194829 62 90 0.9 6.1 0.00 0.00 0.00 47 1018.4
20260510194325 62 90 3.5 5.2 0.00 0.00 0.00 48 1018.6
20260510193821 63 12 2.6 3.5 0.00 0.00 0.00 46 1018.5
20260510193316 63 90 1.7 3.5 0.00 0.00 0.00 49 1018.5
20260510192812 63 79 0.0 6.1 0.00 0.00 0.00 47 1018.3
20260510192307 63 85 0.0 2.6 0.00 0.00 0.00 49 1018.5
20260510191804 62 45 4.3 5.2 0.00 0.00 0.00 47 1018.5
20260510191300 63 101 2.6 3.5 0.00 0.00 0.00 50 1018.4
20260510190758 62 79 2.6 2.6 0.00 0.00 0.00 52 1018.6
20260510190254 61 71 0.0 5.2 0.00 0.00 0.00 51 1018.6
20260510185750 63 56 2.6 4.3 0.00 0.00 0.00 48 1018.5
20260510185249 63 63 4.3 4.3 0.00 0.00 0.00 50 1018.4
20260510184746 62 48 1.7 3.5 0.00 0.00 0.00 48 1018.3
20260510184243 61 47 2.6 5.2 0.00 0.00 0.00 50 1018.5
20260510183737 63 90 0.0 6.1 0.00 0.00 0.00 55 1018.5
20260510183232 60 5 0.9 3.5 0.00 0.00 0.00 53 1018.5
20260510182729 60 39 5.2 8.7 0.00 0.00 0.00 52 1018.4
20260510182225 61 48 0.0 6.1 0.00 0.00 0.00 55 1018.3
20260510181722 61 25 3.5 7.0 0.00 0.00 0.00 55 1018.3
20260510181219 60 143 0.0 4.3 0.00 0.00 0.00 57 1017.9
20260510180714 61 0 0.9 4.3 0.00 0.00 0.00 55 1017.8
20260510180213 62 147 0.0 2.6 0.00 0.00 0.00 52 1018.0
20260510175708 61 37 3.5 4.3 0.00 0.00 0.00 52 1018.0
20260510175204 63 71 4.3 4.3 0.00 0.00 0.00 56 1017.9
20260510174702 60 41 1.7 4.3 0.00 0.00 0.00 54 1018.0
20260510174159 63 23 1.7 2.6 0.00 0.00 0.00 56 1018.0
20260510173655 62 108 2.6 4.3 0.00 0.00 0.00 58 1018.1
20260510173151 61 64 3.5 4.3 0.00 0.00 0.00 52 1018.1
20260510172646 61 116 5.2 5.2 0.00 0.00 0.00 61 1018.2
20260510172143 60 90 3.5 4.3 0.00 0.00 0.00 59 1017.9
20260510171640 62 215 0.0 1.7 0.00 0.00 0.00 61 1018.2
20260510171137 62 79 2.6 4.3 0.00 0.00 0.00 63 1018.4
20260510170633 62 102 1.7 2.6 0.00 0.00 0.00 59 1018.3
20260510170130 60 48 3.5 7.0 0.00 0.00 0.00 57 1018.4
20260510165626 61 82 0.0 3.5 0.00 0.00 0.00 59 1018.2
20260510165121 60 36 0.0 5.2 0.00 0.00 0.00 64 1018.2
20260510164620 59 23 0.0 4.3 0.00 0.00 0.00 63 1018.2
20260510164116 59 11 3.5 6.1 0.00 0.00 0.00 61 1018.1
20260510163611 59 88 5.2 7.8 0.00 0.00 0.00 64 1017.9
20260510163108 60 77 0.0 3.5 0.00 0.00 0.00 61 1018.0
20260510162602 59 66 0.0 2.6 0.00 0.00 0.00 62 1017.9
20260510162059 60 75 2.6 3.5 0.00 0.00 0.00 61 1017.9
20260510161555 60 276 0.0 1.7 0.00 0.00 0.00 57 1017.9
20260510161052 59 352 0.0 3.5 0.00 0.00 0.00 62 1017.9
20260510160549 60 324 1.7 3.5 0.00 0.00 0.00 62 1017.9
20260510160048 60 131 0.0 3.5 0.00 0.00 0.00 61 1017.7
20260510155545 60 82 2.6 2.6 0.00 0.00 0.00 65 1017.5
20260510155042 58 312 0.0 4.3 0.00 0.00 0.00 63 1017.6
20260510154537 59 186 0.0 2.6 0.00 0.00 0.00 64 1017.6
20260510154033 58 41 3.5 3.5 0.00 0.00 0.00 64 1017.6
20260510153528 57 72 2.6 7.0 0.00 0.00 0.00 70 1017.6
20260510153025 57 60 2.6 2.6 0.00 0.00 0.00 70 1017.6
20260510152522 57 114 0.0 1.7 0.00 0.00 0.00 72 1017.6
20260510152018 56 45 1.7 3.5 0.00 0.00 0.00 73 1017.6
20260510151515 55 341 1.7 4.3 0.00 0.00 0.00 73 1017.7
20260510151013 55 90 1.7 4.3 0.00 0.00 0.00 74 1017.3
20260510150507 56 90 0.9 1.7 0.00 0.00 0.00 73 1017.3
20260510150004 57 140 0.0 1.7 0.00 0.00 0.00 75 1017.6
20260510145501 56 246 0.0 1.7 0.00 0.00 0.00 75 1017.5
20260510144956 54 54 0.0 3.5 0.00 0.00 0.00 77 1017.3
20260510144454 53 63 1.7 1.7 0.00 0.00 0.00 82 1017.3
20260510143949 53 27 2.6 3.5 0.00 0.00 0.00 82 1017.0
20260510143445 53 180 0.0 1.7 0.00 0.00 0.00 82 1016.8
20260510142942 52 90 0.9 2.6 0.00 0.00 0.00 82 1016.9
20260510142439 52 57 0.9 3.5 0.00 0.00 0.00 84 1016.8
20260510141935 52 57 1.7 1.7 0.00 0.00 0.00 85 1016.5
20260510141432 51 69 0.0 1.7 0.00 0.00 0.00 85 1016.5
20260510140929 51 98 1.7 3.5 0.00 0.00 0.00 85 1016.9
20260510140420 51 124 1.7 3.5 0.00 0.00 0.00 85 1016.7
20260510135919 51 86 2.6 2.6 0.00 0.00 0.00 86 1016.7
20260510135415 51 96 1.7 1.7 0.00 0.00 0.00 85 1016.3
20260510134913 51 29 0.9 1.7 0.00 0.00 0.00 86 1016.3
20260510134409 51 0 0.0 1.7 0.00 0.00 0.00 86 1016.3
20260510133905 51 126 0.0 2.6 0.00 0.00 0.00 87 1016.4
20260510133402 51 49 0.0 1.7 0.00 0.00 0.00 88 1016.3
20260510132857 51 114 0.0 1.7 0.00 0.00 0.00 88 1016.4
20260510132356 51 63 0.9 1.7 0.00 0.00 0.00 88 1016.2
20260510131852 51 99 0.0 1.7 0.00 0.00 0.00 88 1016.0
20260510131350 51 0 0.0 0.9 0.00 0.00 0.00 88 1016.1
20260510130846 51 77 0.9 3.5 0.00 0.00 0.00 89 1016.0
20260510130343 51 106 0.0 0.9 0.00 0.00 0.00 90 1015.9
20260510125840 50 55 1.7 3.5 0.00 0.00 0.00 90 1016.0
20260510125336 51 83 0.9 1.7 0.00 0.00 0.00 90 1016.1
20260510124834 51 33 0.0 1.7 0.00 0.00 0.00 91 1016.0
20260510124330 51 96 0.0 1.7 0.00 0.00 0.00 91 1016.0
20260510123826 51 103 0.9 2.6 0.00 0.00 0.00 92 1015.9
20260510123321 51 98 0.0 0.0 0.00 0.00 0.00 92 1015.3
20260510122818 51 106 0.0 1.7 0.00 0.00 0.00 92 1015.7
20260510122314 51 63 1.7 1.7 0.00 0.00 0.00 94 1015.5
20260510121810 51 98 0.0 1.7 0.00 0.00 0.00 94 1015.7
20260510121308 51 82 0.0 1.7 0.00 0.00 0.00 94 1015.4
20260510120805 51 80 1.7 1.7 0.00 0.00 0.00 94 1015.2
20260510120301 51 49 0.0 1.7 0.00 0.00 0.00 94 1015.0
20260510115757 51 78 0.9 1.7 0.00 0.00 0.00 95 1014.8
20260510115256 51 99 0.0 0.0 0.00 0.00 0.00 96 1014.6
20260510114756 52 99 0.0 0.0 0.00 0.00 0.00 96 1014.8
20260510114253 51 8 0.0 0.0 0.02 0.00 0.00 95 1014.6
20260510113748 51 106 0.0 0.0 0.00 0.00 0.00 96 1015.0
20260510113246 52 76 2.6 2.6 0.00 0.00 0.00 96 1014.7
20260510112741 52 23 0.0 0.9 0.00 0.00 0.00 96 1014.5
20260510112238 52 90 0.0 0.0 0.00 0.00 0.00 96 1014.5
20260510111734 52 114 0.0 0.9 0.00 0.00 0.00 96 1014.3
20260510111232 52 90 0.0 0.9 0.00 0.00 0.00 96 1014.3
20260510110731 52 33 0.0 1.7 0.00 0.00 0.00 96 1014.2
20260510110229 52 82 0.9 0.9 0.00 0.00 0.00 96 1013.9
20260510105728 52 261 0.0 0.0 0.00 0.00 0.00 96 1013.5
20260510105224 52 20 0.0 0.0 0.00 0.00 0.00 96 1013.7
20260510104720 52 71 0.0 1.7 0.00 0.00 0.00 96 1013.7
20260510104218 52 61 1.7 1.7 0.00 0.00 0.00 97 1013.6
20260510103714 52 54 0.0 1.7 0.00 0.00 0.00 97 1012.9
20260510103212 52 90 0.0 0.0 0.00 0.00 0.00 97 1013.4
20260510102711 52 83 0.9 0.9 0.00 0.00 0.00 96 1013.1
20260510102207 52 83 0.0 0.9 0.00 0.00 0.00 96 1013.1
20260510101705 52 106 0.0 0.9 0.00 0.00 0.00 96 1012.6
20260510101203 52 26 0.0 0.0 0.00 0.00 0.00 96 1012.9
20260510100658 52 66 0.0 1.7 0.00 0.00 0.00 96 1012.7
20260510100156 53 26 0.0 1.7 0.00 0.00 0.00 96 1012.3
20260510095652 52 60 1.7 1.7 0.00 0.00 0.00 96 1012.2
20260510095147 52 79 1.7 3.5 0.00 0.00 0.00 96 1012.2
20260510094646 52 106 0.0 3.5 0.00 0.00 0.00 96 1012.0
20260510094142 53 90 0.0 2.6 0.00 0.00 0.00 96 1012.3
20260510093638 52 93 2.6 3.5 0.00 0.00 0.00 95 1011.9
20260510093135 53 77 0.0 1.7 0.00 0.00 0.00 95 1011.8
20260510092632 53 40 1.7 1.7 0.00 0.00 0.00 95 1011.5
20260510092127 53 139 0.0 1.7 0.00 0.00 0.00 94 1011.6
20260510091623 53 90 0.9 2.6 0.00 0.00 0.00 94 1011.7
20260510091120 53 106 1.7 1.7 0.00 0.00 0.00 94 1011.7
20260510090617 53 96 0.9 2.6 0.00 0.00 0.00 94 1011.3
20260510090113 53 84 0.9 2.6 0.00 0.00 0.00 95 1011.4
20260510085608 53 90 0.0 1.7 0.00 0.00 0.00 96 1011.4
20260510085104 53 140 1.7 3.5 0.00 0.00 0.00 97 1011.4
20260510084601 53 100 0.0 2.6 0.00 0.00 0.00 98 1011.2
20260510084057 52 102 0.9 1.7 0.00 0.00 0.00 98 1011.2
20260510083553 52 15 0.9 1.7 0.00 0.00 0.00 98 1011.0
20260510083050 52 109 0.0 1.7 0.00 0.00 0.00 98 1011.1
20260510082547 52 120 0.0 0.0 0.00 0.00 0.00 98 1010.9
20260510082042 52 90 0.0 0.0 0.00 0.00 0.00 98 1011.1
20260510081537 52 90 0.0 0.0 0.00 0.00 0.00 98 1010.9
20260510081033 52 90 0.0 0.9 0.00 0.00 0.00 98 1010.9
20260510080532 53 262 0.0 0.9 0.00 0.00 0.00 98 1010.7
20260510080030 52 106 0.0 0.0 0.00 0.00 0.00 98 1010.9
20260510075527 52 106 0.0 0.0 0.00 0.00 0.00 98 1010.8
20260510075024 52 106 0.0 0.0 0.00 0.00 0.00 98 1010.6
20260510074522 52 106 0.0 0.0 0.00 0.00 0.00 98 1010.5
20260510074016 52 106 0.0 0.0 0.00 0.00 0.00 97 1010.6
20260510073513 52 106 0.0 0.0 0.00 0.00 0.00 98 1010.5
20260510073010 52 106 0.0 0.0 0.00 0.00 0.00 97 1010.8
20260510072506 52 106 0.0 0.0 0.00 0.00 0.00 97 1010.9
20260510072002 52 106 0.0 0.0 0.00 0.00 0.00 97 1010.8
20260510071458 53 82 0.0 1.7 0.00 0.00 0.00 97 1010.8
20260510070956 53 75 0.0 0.0 0.00 0.00 0.00 97 1010.9
20260510070453 53 66 0.0 0.9 0.00 0.00 0.00 97 1010.7
20260510065949 53 106 0.0 0.0 0.00 0.00 0.00 97 1010.9
20260510065446 53 106 0.0 0.0 0.00 0.00 0.00 96 1010.9
20260510064942 53 106 0.0 0.0 0.00 0.00 0.00 96 1010.7
20260510064440 53 106 0.0 0.0 0.00 0.00 0.00 96 1010.9
20260510063936 53 279 0.0 0.9 0.00 0.00 0.00 96 1010.7
20260510063432 53 270 0.0 0.0 0.00 0.00 0.00 96 1010.6
20260510062930 53 246 0.0 0.0 0.00 0.00 0.00 96 1010.5
20260510062425 54 246 0.0 0.0 0.00 0.00 0.00 96 1010.5
20260510061921 54 270 0.0 0.0 0.00 0.00 0.00 95 1010.5
20260510061418 54 270 0.0 0.0 0.00 0.00 0.00 95 1010.3
20260510060914 54 285 0.0 0.0 0.00 0.00 0.00 96 1010.7
20260510060410 54 285 0.0 0.0 0.00 0.00 0.00 96 1010.7
20260510055907 54 285 0.0 0.0 0.00 0.00 0.00 96 1010.5
20260510055402 54 270 0.0 0.0 0.00 0.00 0.00 96 1010.8
20260510054901 54 237 0.0 0.9 0.00 0.00 0.00 96 1010.8
20260510054356 54 270 0.0 0.0 0.00 0.00 0.00 95 1011.0
20260510053851 55 294 0.9 0.9 0.00 0.00 0.00 95 1011.0
20260510053347 55 270 0.0 0.0 0.00 0.00 0.00 95 1011.2
20260510052844 56 90 0.0 0.0 0.00 0.00 0.00 94 1011.2
20260510052339 56 90 0.0 0.0 0.00 0.00 0.00 93 1011.0
20260510051836 56 262 0.9 0.9 0.00 0.00 0.00 92 1010.8
20260510051332 56 36 1.7 2.6 0.00 0.00 0.00 92 1011.4
20260510050830 56 38 4.3 5.2 0.00 0.00 0.00 94 1011.4
20260510050326 55 109 2.6 4.3 0.00 0.00 0.00 96 1011.6
20260510045823 55 112 1.7 1.7 0.00 0.00 0.00 96 1010.5
20260510045320 55 270 0.0 0.0 0.00 0.00 0.00 96 1010.6
20260510044817 55 270 0.0 0.0 0.00 0.00 0.00 96 1010.3
20260510044314 55 270 0.0 0.0 0.00 0.00 0.00 96 1010.3
20260510043810 55 270 0.9 0.9 0.00 0.00 0.00 96 1009.9
20260510043306 55 270 0.0 0.0 0.00 0.00 0.00 96 1010.2
20260510042804 55 270 0.0 0.9 0.00 0.00 0.00 97 1010.2
20260510042259 55 270 0.0 0.0 0.00 0.00 0.00 97 1010.3
20260510041756 55 270 0.0 0.0 0.00 0.00 0.00 97 1010.2
20260510041254 55 246 0.0 0.9 0.00 0.00 0.00 97 1010.1
20260510040751 55 279 0.0 0.0 0.00 0.00 0.00 97 1009.9
20260510040242 55 279 0.0 0.0 0.00 0.00 0.00 97 1009.7
20260510035737 56 279 0.0 0.0 0.00 0.03 0.03 97 1009.9
20260510035233 56 254 0.0 0.0 0.00 0.03 0.03 97 1009.6
20260510034729 56 254 0.0 0.9 0.00 0.03 0.03 97 1009.9
20260510034228 56 270 0.0 0.0 0.00 0.03 0.03 97 1009.8
20260510033723 56 270 0.0 0.0 0.00 0.03 0.03 97 1009.9
20260510033221 56 270 0.0 0.0 0.00 0.03 0.03 97 1009.7
20260510032717 56 254 0.0 0.0 0.00 0.03 0.03 97 1009.9
20260510032213 56 254 0.0 0.0 0.00 0.03 0.03 97 1009.6
20260510031708 56 254 0.0 0.0 0.00 0.03 0.03 97 1009.7
20260510031205 56 254 0.0 0.9 0.00 0.03 0.03 97 1009.6
20260510030704 57 270 0.0 1.7 0.00 0.03 0.03 97 1009.7
20260510030202 57 270 0.0 0.0 0.00 0.03 0.03 97 1009.6
20260510025659 57 265 1.7 1.7 0.00 0.03 0.03 98 1009.5
20260510025156 57 262 0.0 1.7 0.00 0.03 0.03 98 1009.6
20260510024653 57 270 0.0 1.7 0.00 0.03 0.03 97 1009.5
20260510024149 57 0 0.0 1.7 0.00 0.03 0.03 97 1009.6
20260510023645 57 114 0.0 1.7 0.00 0.03 0.03 97 1009.7
20260510023143 57 8 0.0 2.6 0.00 0.03 0.03 97 1009.7
20260510022637 57 237 1.7 1.7 0.00 0.03 0.03 97 1009.5
20260510022132 57 229 0.0 1.7 0.02 0.03 0.03 96 1009.5
20260510021628 57 270 0.9 1.7 0.02 0.03 0.03 96 1009.5
20260510021126 58 233 1.7 1.7 0.02 0.03 0.03 95 1009.7
20260510020620 58 234 0.0 0.9 0.02 0.03 0.03 94 1009.4
20260510020115 58 98 0.0 1.7 0.02 0.02 0.02 92 1009.8
20260510015612 59 286 0.0 1.7 0.02 0.02 0.02 90 1009.6
20260510015108 60 353 0.0 0.0 0.00 0.02 0.02 85 1009.8
20260510014604 61 23 1.7 3.5 0.00 0.02 0.02 80 1009.9
20260510014102 62 180 0.0 4.3 0.00 0.02 0.02 77 1009.2
20260510013556 60 90 0.9 1.7 0.00 0.02 0.02 82 1009.0
20260510013052 62 17 1.7 1.7 0.00 0.02 0.02 78 1009.0
20260510012546 62 107 0.0 3.5 0.00 0.02 0.02 73 1009.1
20260510012043 64 90 0.0 2.6 0.00 0.02 0.02 69 1009.3
20260510011542 63 143 1.7 1.7 0.00 0.02 0.02 71 1008.5
20260510011038 62 106 0.9 0.9 0.00 0.02 0.02 72 1008.3
20260510010535 62 90 0.0 0.0 0.00 0.02 0.02 73 1007.9
20260510010032 62 90 0.0 0.0 0.00 0.02 0.02 72 1008.1
20260510005527 63 261 0.0 0.0 0.00 0.02 0.02 71 1007.7
20260510005026 63 261 0.0 0.0 0.00 0.02 0.02 71 1007.5
20260510004523 63 261 0.0 0.0 0.00 0.02 0.02 69 1007.5
20260510004021 63 23 0.0 0.9 0.00 0.02 0.02 70 1007.7
20260510003517 63 8 0.0 0.0 0.00 0.02 0.02 69 1007.9
20260510003013 63 90 0.0 0.9 0.00 0.02 0.02 68 1007.9
20260510002508 64 270 0.0 0.0 0.00 0.02 0.02 68 1007.8
20260510002005 64 279 0.0 0.0 0.00 0.02 0.02 68 1007.5
20260510001503 64 90 0.0 1.7 0.00 0.02 0.02 66 1007.9
20260510001001 64 106 0.0 1.7 0.00 0.02 0.02 67 1007.8
20260510000456 64 117 0.0 1.7 0.00 0.02 0.02 66 1007.5
20260509235953 64 234 0.0 0.0 0.00 0.02 0.02 66 1008.0
20260509235450 65 209 0.0 1.7 0.00 0.02 0.02 62 1007.8
20260509234946 65 32 0.0 1.7 0.00 0.02 0.02 66 1007.8
20260509234443 66 14 0.9 4.3 0.00 0.02 0.02 59 1007.7
20260509233941 66 81 0.0 1.7 0.00 0.02 0.02 62 1007.6
20260509233438 67 66 1.7 2.6 0.00 0.02 0.02 61 1007.5
20260509232934 67 99 0.0 3.5 0.00 0.02 0.02 58 1007.6
20260509232432 67 81 1.7 1.7 0.00 0.02 0.02 60 1007.4
20260509231927 68 123 1.7 1.7 0.00 0.02 0.02 64 1007.3
20260509231424 68 70 0.0 4.3 0.00 0.02 0.02 59 1007.3
20260509230922 68 61 2.6 2.6 0.00 0.02 0.02 63 1007.3
20260509230419 68 68 1.7 2.6 0.00 0.02 0.02 60 1007.2
20260509225915 68 41 1.7 4.3 0.00 0.02 0.02 61 1007.1
20260509225412 68 81 0.0 3.5 0.00 0.02 0.02 62 1007.1
20260509224908 69 90 1.7 3.5 0.00 0.02 0.02 58 1007.2
20260509224403 69 345 0.0 2.6 0.00 0.02 0.02 60 1007.1
20260509223901 70 81 0.0 2.6 0.00 0.02 0.02 59 1007.0
20260509223357 70 66 0.0 1.7 0.00 0.02 0.02 60 1007.5
20260509222855 70 68 0.0 2.6 0.00 0.02 0.02 59 1007.3
20260509222355 70 352 0.0 1.7 0.00 0.02 0.02 58 1007.5
20260509221850 70 32 0.0 1.7 0.00 0.02 0.02 54 1007.3
20260509221348 70 334 0.9 4.3 0.00 0.02 0.02 58 1007.3
20260509220843 70 345 0.0 1.7 0.00 0.02 0.02 55 1007.4
20260509220339 70 337 0.9 2.6 0.00 0.02 0.02 56 1007.5
20260509215835 71 121 0.0 3.5 0.00 0.02 0.02 57 1007.5
20260509215332 71 63 0.0 2.6 0.00 0.02 0.02 57 1007.6
20260509214829 71 265 0.0 1.7 0.00 0.02 0.02 56 1007.7
20260509214326 72 18 2.6 4.3 0.00 0.02 0.02 55 1007.6
20260509213823 73 103 0.0 1.7 0.00 0.02 0.02 52 1007.6
20260509213318 72 10 0.0 3.5 0.00 0.02 0.02 57 1007.4
20260509212816 71 0 0.0 2.6 0.00 0.02 0.02 55 1007.5
20260509212313 73 20 0.0 3.5 0.00 0.02 0.02 57 1007.4
20260509211809 73 0 0.0 2.6 0.00 0.02 0.02 55 1007.5
20260509211305 72 55 3.5 3.5 0.00 0.02 0.02 55 1007.5
20260509210802 71 34 1.7 4.3 0.00 0.02 0.02 57 1007.8
20260509210300 71 23 0.0 1.7 0.00 0.02 0.02 53 1007.8
20260509205759 72 53 1.7 3.5 0.00 0.02 0.02 56 1007.9
20260509205254 71 57 1.7 3.5 0.00 0.02 0.02 53 1007.8
20260509204750 71 86 1.7 3.5 0.00 0.02 0.02 57 1007.9
20260509204247 70 43 3.5 3.5 0.00 0.02 0.02 59 1007.8
20260509203743 70 67 0.0 5.2 0.00 0.02 0.02 56 1007.9
20260509203241 69 14 0.9 4.3 0.00 0.02 0.02 58 1007.9
20260509202736 71 7 0.9 7.0 0.00 0.02 0.02 61 1007.9